Cocoa Beach, FL

8:36 AM EDT on March 28, 2017 (GMT -0400)
Patrick Air Force Base

Weather History for KCOF - January, 2013

Change the Weather History Date:

Sunday, January 20, 2013

  Actual Average Record
Temperature  
Mean Temperature 66 °F -  
Max Temperature 71 °F 67 °F 82 °F (2017)
Min Temperature 62 °F 52 °F 42 °F (1997)
Cooling Degree Days 2    
Growing Degree Days 16 (Base 50)    
Moisture  
Dew Point 63 °F    
Average Humidity 87    
Maximum Humidity 94    
Minimum Humidity 78    
Precipitation  
Precipitation 0.04 in - - ()
Sea Level Pressure  
Sea Level Pressure 30.13 in    
Wind  
Wind Speed 12 mph (North)    
Max Wind Speed 17 mph    
Max Gust Speed -    
Visibility 10 miles    
Events Rain    
Averages and records for this station are not official NWS values.
T = Trace of Precipitation, MM = Missing Value Source: NWS Daily Summary

Daily Weather History Graph

Daily Weather History Graph

Search for Another Location

Airport or City:

Trip Planner

Search our weather history database for the weather conditions in past years. The results will help you decide how hot, cold, wet, or windy it might be!

Date:

Astronomy

Jan. 20, 2013 Rise Set
Actual Time 7:14 AM EST 5:52 PM EST
Civil Twilight 6:49 AM EST 6:17 PM EST
Nautical Twilight 6:20 AM EST 6:46 PM EST
Astronomical Twilight 5:52 AM EST 7:14 PM EST
Moon 12:51 PM EST (1/20) 1:48 AM EST (1/20)
Length of Visible Light 11h 28m
Length of Day
10h 38m
Waxing Gibbous, 66% of the Moon is Illuminated
Jan 20
Waxing Gibbous
Jan 26
Full
Feb 3
Last Quarter
Feb 10
New
Feb 17
First Quarter

Hourly Weather History & Observations

Time (EST) Temp. Dew Point Humidity Pressure Visibility Wind Dir Wind Speed Gust Speed Precip Events Conditions
12:20 AM 69.8 °F 64.4 °F 83% 30.14 in 10.0 mi East 17.3 mph - N/A   Light Drizzle
12:29 AM 68.0 °F 64.4 °F 88% 30.15 in 6.0 mi East 13.8 mph - N/A Rain Light Rain
12:35 AM 68.0 °F 64.4 °F 88% 30.15 in 5.0 mi East 11.5 mph - N/A Rain Light Rain
12:42 AM 66.2 °F 62.6 °F 88% 30.15 in 9.0 mi East 9.2 mph - N/A   Scattered Clouds
12:55 AM 67.3 °F 63.7 °F 88% 30.14 in 10.0 mi East 12.7 mph - 0.02 in   Partly Cloudy
12:56 AM 68.0 °F 62.6 °F 83% 30.15 in 10.0 mi ENE 12.7 mph - N/A   Light Drizzle
1:11 AM 66.2 °F 62.6 °F 88% 30.15 in 10.0 mi ENE 6.9 mph - N/A   Partly Cloudy
1:19 AM 66.2 °F 62.6 °F 88% 30.15 in 10.0 mi NE 10.4 mph - N/A   Light Drizzle
1:37 AM 66.2 °F 62.6 °F 88% 30.14 in 10.0 mi NNE 8.1 mph - N/A   Clear
1:42 AM 66.2 °F 62.6 °F 88% 30.14 in 10.0 mi NNE 5.8 mph - N/A   Light Drizzle
1:55 AM 66.0 °F 63.3 °F 91% 30.14 in 10.0 mi North 9.2 mph - 0.00 in   Light Drizzle
2:11 AM 66.2 °F 64.4 °F 94% 30.12 in 9.0 mi North 8.1 mph - N/A Rain Light Rain
2:27 AM 66.2 °F 62.6 °F 88% 30.12 in 10.0 mi NNW 8.1 mph - N/A   Light Drizzle
2:28 AM 66.2 °F 62.6 °F 88% 30.12 in 10.0 mi NNW 9.2 mph - N/A   Scattered Clouds
2:55 AM 65.3 °F 63.5 °F 94% 30.12 in 10.0 mi NNW 6.9 mph - 0.02 in   Scattered Clouds
3:04 AM 64.4 °F 62.6 °F 94% 30.12 in 10.0 mi NNW 12.7 mph - N/A   Mostly Cloudy
3:13 AM 64.4 °F 62.6 °F 94% 30.12 in 10.0 mi NNW 13.8 mph - N/A   Mostly Cloudy
3:25 AM 64.4 °F 62.6 °F 94% 30.12 in 10.0 mi NNW 11.5 mph - N/A   Scattered Clouds
3:32 AM 64.4 °F 62.6 °F 94% 30.12 in 10.0 mi NNW 11.5 mph - N/A   Scattered Clouds
3:55 AM 64.4 °F 62.6 °F 94% 30.12 in 10.0 mi NNW 11.5 mph - N/A   Partly Cloudy
4:55 AM 63.7 °F 61.9 °F 94% 30.12 in 10.0 mi NNW 13.8 mph - N/A   Scattered Clouds
5:46 AM 64.4 °F 60.8 °F 88% 30.12 in 10.0 mi North 11.5 mph - N/A   Mostly Cloudy
5:55 AM 63.7 °F 61.7 °F 93% 30.12 in 10.0 mi North 10.4 mph - N/A   Mostly Cloudy
6:30 AM 64.4 °F 60.8 °F 88% 30.13 in 10.0 mi NNW 11.5 mph - N/A   Mostly Cloudy
6:46 AM 62.6 °F 60.8 °F 94% 30.13 in 10.0 mi NNW 10.4 mph - N/A   Mostly Cloudy
6:55 AM 63.3 °F 61.2 °F 93% 30.13 in 10.0 mi NNW 13.8 mph - N/A   Overcast
7:46 AM 64.4 °F 60.8 °F 88% 30.16 in 10.0 mi NNW 12.7 mph - N/A   Overcast
7:55 AM 63.5 °F 61.2 °F 92% 30.16 in 10.0 mi North 10.4 mph - N/A   Overcast
8:55 AM 64.8 °F 62.4 °F 92% 30.17 in 10.0 mi North 10.4 mph - N/A   Overcast
9:30 AM 66.2 °F 62.6 °F 88% 30.18 in 10.0 mi North 10.4 mph - N/A   Scattered Clouds
9:39 AM 66.2 °F 64.4 °F 94% 30.18 in 10.0 mi North 8.1 mph - N/A   Mostly Cloudy
9:55 AM 67.1 °F 64.0 °F 90% 30.18 in 10.0 mi North 9.2 mph - N/A   Mostly Cloudy
9:57 AM 68.0 °F 64.4 °F 88% 30.19 in 10.0 mi North 8.1 mph - N/A   Mostly Cloudy
10:34 AM 68.0 °F 64.4 °F 88% 30.18 in 10.0 mi North 9.2 mph - N/A   Mostly Cloudy
10:55 AM 68.9 °F 64.8 °F 87% 30.18 in 10.0 mi North 8.1 mph - N/A   Mostly Cloudy
11:19 AM 69.8 °F 64.4 °F 83% 30.16 in 10.0 mi NNE 12.7 mph - N/A   Mostly Cloudy
11:55 AM 70.7 °F 64.9 °F 82% 30.15 in 10.0 mi NNE 12.7 mph - N/A   Scattered Clouds
12:01 PM 69.8 °F 64.4 °F 83% 30.14 in 10.0 mi NNE 11.5 mph - N/A   Light Drizzle
12:08 PM 69.8 °F 64.4 °F 83% 30.14 in 10.0 mi NNE 13.8 mph - N/A   Scattered Clouds
12:55 PM 69.6 °F 64.6 °F 84% 30.12 in 10.0 mi North 12.7 mph - 0.00 in   Scattered Clouds
1:55 PM 70.5 °F 64.0 °F 80% 30.09 in 10.0 mi NNE 13.8 mph - N/A   Clear
2:55 PM 71.8 °F 64.8 °F 78% 30.08 in 10.0 mi NE 11.5 mph - N/A   Scattered Clouds
2:59 PM 69.8 °F 64.4 °F 83% 30.08 in 10.0 mi North 13.8 mph - N/A   Mostly Cloudy
3:09 PM 68.0 °F 62.6 °F 83% 30.09 in 10.0 mi North 15.0 mph - N/A   Mostly Cloudy
3:17 PM 68.0 °F 62.6 °F 83% 30.09 in 10.0 mi North 13.8 mph - N/A   Mostly Cloudy
3:21 PM 68.0 °F 62.6 °F 83% 30.09 in 10.0 mi North 16.1 mph - N/A   Mostly Cloudy
3:22 PM 68.0 °F 62.6 °F 83% 30.09 in 10.0 mi North 15.0 mph - N/A   Light Drizzle
3:32 PM 68.0 °F 62.6 °F 83% 30.08 in 10.0 mi North 16.1 mph - N/A   Drizzle
3:55 PM 67.6 °F 63.9 °F 88% 30.08 in 10.0 mi NNE 13.8 mph - 0.00 in   Light Drizzle
4:55 PM 67.5 °F 62.2 °F 83% 30.08 in 10.0 mi NNE 15.0 mph - 0.00 in   Scattered Clouds
5:55 PM 66.6 °F 61.3 °F 83% 30.10 in 10.0 mi NNE 10.4 mph - N/A   Clear
6:55 PM 66.7 °F 61.2 °F 82% 30.10 in 10.0 mi North 10.4 mph - N/A   Mostly Cloudy
7:55 PM 66.2 °F 60.3 °F 81% 30.10 in 10.0 mi North 9.2 mph - N/A   Scattered Clouds
7:57 PM 66.2 °F 60.8 °F 83% 30.10 in 10.0 mi North 8.1 mph - N/A   Mostly Cloudy
8:27 PM 66.2 °F 60.8 °F 83% 30.10 in 10.0 mi North 6.9 mph - N/A   Scattered Clouds
8:55 PM 66.0 °F 60.8 °F 83% 30.11 in 10.0 mi North 6.9 mph - N/A   Scattered Clouds
9:16 PM 66.2 °F 60.8 °F 83% 30.11 in 10.0 mi North 8.1 mph - N/A   Scattered Clouds
9:55 PM 66.0 °F 61.2 °F 84% 30.11 in 10.0 mi North 6.9 mph - N/A   Clear
10:55 PM 65.5 °F 62.1 °F 89% 30.11 in 10.0 mi North 4.6 mph - N/A   Mostly Cloudy
11:55 PM 65.7 °F 62.4 °F 89% 30.10 in 10.0 mi North 6.9 mph - N/A   Scattered Clouds